1499724000.57,11569,17.31,74122.0,9.65,8.97,8.97,0,*7D
1499724001.75,11570,17.31,74136.3,9.63,8.83,8.83,0,*73
1499724002.93,11571,17.31,74156.0,9.63,8.87,8.87,0,*72
1499724004.18,11572,17.31,74152.0,9.65,8.97,9.01,0,*79
1499724005.41,11573,17.31,74154.5,9.63,9.01,8.97,0,*7E
1499724006.61,11574,17.31,74160.5,9.63,8.97,8.87,0,*76
1499724007.83,11575,17.31,74154.5,9.63,8.93,8.93,0,*76
1499724009.04,11576,17.31,74176.5,9.65,8.87,8.79,0,*72
1499724010.26,11577,17.31,74188.3,9.63,8.71,8.71,0,*74
1499724011.49,11578,17.31,74154.5,9.65,9.01,9.03,0,*7F
1499724012.7,11579,17.31,74136.5,9.65,9.25,9.25,0,*7C
1499724013.9,11580,17.31,74146.3,9.63,9.19,9.07,0,*73
1499724015.13,11581,17.31,74144.3,9.63,9.11,9.01,0,*7C
1499724016.39,11582,17.31,74154.3,9.65,9.01,9.01,0,*78
1499724017.64,11583,17.31,74178.3,9.65,8.89,8.89,0,*79
1499724018.87,11584,17.31,74166.3,9.63,8.93,8.93,0,*78
1499724020.07,11585,17.31,74170.8,9.63,9.19,9.21,0,*72
1499724021.27,11586,17.31,74168.8,9.65,9.21,9.21,0,*7C
1499724022.48,11587,17.31,74168.3,9.63,9.01,9.07,0,*7D
1499724023.7,11588,17.31,74168.3,9.63,8.89,8.89,0,*74
1499724024.9,11589,17.31,74162.5,9.63,8.83,8.93,0,*74
1499724026.13,11590,17.31,74156.5,9.63,8.93,8.93,0,*7D
1499724027.33,11591,17.31,74152.3,9.65,9.21,9.25,0,*7E
1499724028.5,11592,17.31,74142.8,9.63,9.21,9.29,0,*77
1499724029.73,11593,17.31,74136.8,9.65,9.03,9.11,0,*7B
1499724030.95,11594,17.31,74130.8,9.63,9.11,9.11,0,*79
1499724032.17,11595,17.31,74140.5,9.63,9.11,9.11,0,*78
1499724033.42,11596,17.31,74138.5,9.65,9.01,8.97,0,*73
1499724034.64,11597,17.31,74138.3,9.63,8.75,8.75,0,*7A
1499724035.86,11598,17.31,74142.0,9.65,8.69,8.75,0,*7E
1499724037.05,11599,17.31,74138.8,9.63,8.87,8.87,0,*74
1499724038.26,11600,17.31,74134.5,9.63,8.71,8.75,0,*73
1499724039.43,11601,17.31,74128.0,9.63,8.61,8.65,0,*72
1499724040.65,11602,17.31,74138.3,9.63,8.71,8.75,0,*71
1499724041.82,11603,17.31,74140.3,9.63,8.65,8.65,0,*74
1499724043.04,11604,17.31,74138.5,9.63,8.93,8.97,0,*77
1499724044.2,11605,17.31,74144.0,9.63,9.29,9.29,0,*72
1499724045.4,11606,17.31,74136.3,9.63,9.11,9.07,0,*76
1499724046.57,11607,17.31,74136.5,9.63,9.29,9.33,0,*7B
1499724047.74,11608,17.31,74140.0,9.63,9.29,9.29,0,*7F
1499724048.94,11609,17.31,74142.0,9.63,9.19,9.21,0,*75
1499724050.17,11610,17.31,74142.0,9.63,9.19,9.19,0,*76
1499724051.43,11611,17.31,74146.0,9.65,9.19,9.19,0,*71
1499724052.66,11612,17.31,74150.0,9.65,9.15,9.21,0,*75
1499724053.91,11613,17.31,74148.0,9.65,9.15,9.15,0,*73
1499724055.14,11614,17.31,74152.3,9.65,9.11,9.21,0,*77
1499724056.34,11615,17.31,74160.3,9.65,9.21,9.21,0,*75
1499724057.57,11616,17.31,74162.8,9.65,9.11,9.21,0,*75
1499724058.82,11617,17.31,74162.3,9.65,9.11,9.15,0,*73
1499724060.04,11618,17.31,74162.0,9.65,9.03,9.11,0,*7B
1499724061.3,11619,17.31,74156.8,9.65,8.97,9.01,0,*77
1499724062.55,11620,17.31,74160.3,9.65,8.97,8.97,0,*73
1499724063.73,11621,17.31,74132.0,9.63,8.87,8.87,0,*74
1499724064.95,11622,17.31,74116.3,9.63,8.33,8.41,0,*72
1499724066.16,11623,17.31,74116.5,9.67,8.79,8.71,0,*7A
1499724067.39,11624,17.31,74128.0,9.67,9.01,9.01,0,*75
1499724068.64,11625,17.31,74138.0,9.65,8.97,8.97,0,*76
1499724069.82,11626,17.31,74144.8,9.63,8.87,8.87,0,*73
1499724071.04,11627,17.31,74148.0,9.63,8.97,8.97,0,*72
1499724072.29,11628,17.31,74152.8,9.65,8.97,8.97,0,*7B
1499724073.54,11629,17.31,74150.3,9.65,8.97,8.89,0,*75
1499724074.75,11630,17.31,74154.5,9.65,8.87,8.87,0,*72
1499724076.0,11631,17.31,74158.3,9.65,8.75,8.75,0,*73
1499724077.2,11632,17.31,74146.8,9.63,8.65,8.71,0,*73
1499724078.39,11633,17.31,74148.3,9.63,8.83,8.75,0,*7E
1499724079.56,11634,17.31,74156.8,9.63,8.61,8.65,0,*74
1499724080.79,11635,17.31,74158.0,9.63,8.55,8.51,0,*75
1499724081.99,11636,17.31,74148.0,9.63,8.51,8.45,0,*77
1499724083.21,11637,17.31,74158.8,9.63,8.33,8.33,0,*73
1499724084.42,11638,17.31,74156.0,9.63,8.55,8.61,0,*7B
1499724085.59,11639,17.31,74150.3,9.63,8.61,8.61,0,*7D
1499724086.79,11640,17.31,74154.0,9.63,8.75,8.83,0,*7A
1499724087.98,11641,17.31,74154.3,9.61,8.65,8.65,0,*70
1499724089.22,11642,17.31,74158.8,9.61,8.55,8.61,0,*74
1499724090.39,11643,17.31,74166.5,9.59,8.61,8.61,0,*79
1499724091.64,11644,17.31,74160.3,9.61,8.75,8.71,0,*71
1499724092.89,11645,17.31,74152.0,9.61,8.75,8.75,0,*74
1499724094.07,11646,17.31,74158.5,9.59,8.79,8.79,0,*7C
1499724095.25,11647,17.31,74154.8,9.59,8.83,8.83,0,*7D
1499724096.48,11648,17.31,74162.3,9.59,8.89,8.89,0,*72
1499724097.71,11649,17.31,74172.8,9.59,8.89,8.93,0,*78
1499724098.97,11650,17.31,74180.8,9.61,9.01,9.01,0,*70
1499724100.19,11651,17.31,74172.5,9.59,8.93,8.97,0,*7E
1499724101.44,11652,17.31,74156.3,9.61,9.01,8.97,0,*7C
1499724102.7,11653,17.31,74146.8,9.61,9.01,9.01,0,*73
1499724103.96,11654,17.31,74142.8,9.61,9.01,9.01,0,*74
1499724105.17,11655,17.31,74140.8,9.61,9.07,9.07,0,*75
1499724106.38,11656,17.31,74150.8,9.61,9.07,9.07,0,*76
1499724107.63,11657,17.31,74148.0,9.61,8.97,8.97,0,*77
1499724108.86,11658,17.31,74146.8,9.63,9.01,9.01,0,*7A
1499724110.09,11659,17.31,74146.0,9.63,8.97,9.01,0,*75
1499724111.31,11660,17.31,74142.3,9.63,8.97,8.97,0,*71
1499724112.53,11661,17.31,74142.3,9.63,8.97,8.97,0,*70
1499724113.71,11662,17.31,74140.3,9.63,8.87,8.87,0,*73
1499724114.91,11663,17.31,74150.3,9.63,8.87,8.93,0,*77
1499724116.15,11664,17.31,74152.3,9.61,8.87,8.93,0,*72
1499724117.41,11665,17.31,74158.8,9.61,8.93,8.93,0,*76
1499724118.66,11666,17.31,74152.5,9.61,8.97,9.01,0,*7B
1499724119.87,11667,17.31,74144.3,9.61,8.87,8.83,0,*70
1499724121.1,11668,17.31,74136.0,9.61,8.75,8.83,0,*72
1499724122.31,11669,17.31,74134.3,9.61,8.87,8.83,0,*7E
1499724123.54,11670,17.31,74126.0,9.61,8.93,8.87,0,*77
1499724124.77,11671,17.31,74132.0,9.61,8.87,8.93,0,*76
1499724126.0,11672,17.31,74128.8,9.59,8.71,8.71,0,*7B
1499724127.25,11673,17.31,74138.5,9.61,8.71,8.71,0,*71
1499724128.49,11674,17.31,74134.8,9.61,8.75,8.75,0,*76
1499724129.7,11675,17.31,74128.3,9.59,8.79,8.71,0,*74
1499724130.95,11676,17.31,74126.0,9.61,8.71,8.71,0,*74
1499724132.17,11677,17.31,74120.5,9.61,8.71,8.65,0,*70
1499724133.42,11678,17.31,74132.5,9.61,8.75,8.71,0,*7E
1499724134.6,11679,17.31,74138.5,9.59,8.83,8.87,0,*74
1499724135.83,11680,17.31,74136.5,9.61,8.93,8.87,0,*78
1499724137.06,11681,17.31,74146.0,9.59,8.89,8.89,0,*77
1499724138.31,11682,17.31,74154.3,9.61,8.93,8.93,0,*7F
1499724139.56,11683,17.31,74136.8,9.61,9.11,9.11,0,*7E
1499724140.79,11684,17.31,74136.8,9.61,8.97,8.87,0,*78
1499724142.05,11685,17.31,74136.0,9.61,8.93,8.93,0,*78
1499724143.26,11686,17.31,74142.0,9.61,8.83,8.87,0,*7F
1499724144.46,11687,17.31,74152.0,9.61,8.87,8.83,0,*7E
1499724145.72,11688,17.31,74150.8,9.61,8.93,8.93,0,*75
1499724146.98,11689,17.31,74150.3,9.61,8.93,8.93,0,*74
1499724148.21,11690,17.31,74148.8,9.61,9.11,9.07,0,*7B
1499724149.44,11691,17.31,74152.3,9.61,9.07,9.19,0,*72
1499724150.65,11692,17.31,74140.5,9.61,9.07,9.07,0,*7E
1499724151.9,11693,17.31,74138.5,9.61,9.11,9.11,0,*7F
1499724153.16,11694,17.31,74138.0,9.65,9.01,9.01,0,*7C
1499724154.41,11695,17.31,74140.0,9.61,8.93,8.93,0,*79
1499724155.67,11696,17.31,74138.5,9.61,9.01,8.97,0,*74
1499724156.9,11697,17.31,74134.3,9.61,9.07,9.11,0,*7C
1499724158.12,11698,17.31,74130.0,9.63,8.97,8.97,0,*76
1499724159.3,11699,17.31,74132.5,9.63,8.87,8.87,0,*77
1499724160.52,11700,17.31,74134.5,9.63,8.75,8.75,0,*76
1499724161.76,11701,17.31,74134.5,9.61,8.75,8.75,0,*75
1499724162.98,11702,17.31,74136.5,9.63,8.75,8.75,0,*74
1499724164.15,11703,17.31,74134.8,9.63,8.65,8.65,0,*75
1499724165.37,11704,17.31,74138.0,9.63,8.75,8.75,0,*72
1499724166.56,11705,17.31,74132.3,9.61,8.65,8.65,0,*71
1499724167.82,11706,17.31,74128.8,9.61,8.41,8.33,0,*77
1499724169.04,11707,17.31,74138.3,9.59,8.29,8.29,0,*78
1499724170.26,11708,17.31,74150.0,9.59,8.29,8.29,0,*77
1499724171.46,11709,17.31,74136.5,9.59,8.51,8.61,0,*75
1499724172.66,11710,17.31,74118.5,9.61,9.21,9.21,0,*75
1499724173.89,11711,17.31,74122.8,9.59,9.19,9.19,0,*7F
1499724175.15,11712,17.31,74132.3,9.61,9.01,9.01,0,*77
1499724176.36,11713,17.31,74136.5,9.61,8.87,8.87,0,*76
1499724177.57,11714,17.31,74184.0,9.59,8.83,8.89,0,*70
1499724178.77,11715,17.31,74158.8,9.59,8.83,8.89,0,*71
1499724179.97,11716,17.31,74156.8,9.61,9.21,9.21,0,*73
1499724181.17,11717,17.31,74136.8,9.61,9.33,9.33,0,*72
1499724182.37,11718,17.31,74144.3,9.61,9.21,9.33,0,*7E
1499724183.58,11719,17.31,74148.0,9.61,9.07,9.07,0,*7C
1499724184.79,11720,17.31,74144.0,9.59,8.83,8.89,0,*77
1499724186.04,11721,17.31,74156.0,9.61,8.75,8.75,0,*77
1499724187.29,11722,17.31,74144.8,9.61,8.71,8.75,0,*70
1499724188.51,11723,17.31,74144.5,9.61,8.61,8.55,0,*72
1499724189.74,11724,17.31,74136.8,9.61,8.27,8.29,0,*7C
1499724191.0,11725,17.31,74134.0,9.61,8.41,8.33,0,*76
1499724192.23,11726,17.31,74124.0,9.59,8.47,8.41,0,*7D
1499724193.45,11727,17.31,74124.8,9.59,8.59,8.47,0,*75
1499724194.63,11728,17.31,74152.3,9.59,8.61,8.61,0,*75
1499724195.86,11729,17.31,74144.0,9.59,8.59,8.59,0,*74
1499724197.08,11730,17.31,74136.3,9.59,8.71,8.71,0,*7C
1499724198.3,11731,17.31,74140.5,9.59,8.71,8.71,0,*7D
1499724199.48,11732,17.31,74142.8,9.59,8.79,8.79,0,*7E
1499724200.66,11733,17.31,74138.8,9.59,8.83,8.79,0,*7A
1499724201.87,11734,17.31,74146.0,9.59,8.89,8.83,0,*72
1499724203.07,11735,17.31,74164.3,9.59,8.83,8.89,0,*73
1499724204.25,11736,17.31,74128.5,9.59,8.83,8.83,0,*7A
1499724205.45,11737,17.31,74114.8,9.59,8.79,8.71,0,*73
1499724206.65,11738,17.31,74112.0,9.59,8.71,8.79,0,*7C
1499724207.83,11739,17.31,74144.0,9.59,8.83,8.79,0,*70
1499724209.0,11740,17.31,74132.0,9.59,8.69,8.69,0,*7B
1499724210.23,11741,17.31,74130.0,9.59,8.59,8.51,0,*72
1499724211.46,11742,17.31,74112.8,9.57,8.59,8.65,0,*78
1499724212.65,11743,17.31,74112.5,9.57,8.69,8.69,0,*76
1499724213.86,11744,17.31,74128.0,9.57,8.79,8.69,0,*70
1499724215.09,11745,17.31,74130.5,9.57,8.79,8.75,0,*7C
1499724216.28,11746,17.31,74122.0,9.57,8.69,8.65,0,*7F
1499724217.47,11747,17.31,74124.0,9.57,8.65,8.65,0,*72
1499724218.73,11748,17.31,74120.5,9.57,8.59,8.59,0,*7D
1499724219.98,11749,17.31,74140.5,9.57,8.59,8.59,0,*7C
1499724221.15,11750,17.31,74140.5,9.55,8.65,8.65,0,*76
1499724222.4,11751,17.31,74138.8,9.57,8.47,8.47,0,*75
1499724223.65,11752,17.31,74148.0,9.57,8.37,8.37,0,*76
1499724224.85,11753,17.31,74148.8,9.55,8.45,8.37,0,*70
1499724226.11,11754,17.31,74148.5,9.57,8.55,8.55,0,*70
1499724227.34,11755,17.31,74150.8,9.55,8.55,8.59,0,*7F
1499724228.53,11756,17.31,74154.8,9.57,8.65,8.69,0,*7E
1499724229.71,11757,17.31,74160.0,9.55,8.79,8.79,0,*71
1499724230.89,11758,17.31,74160.5,9.55,8.87,8.87,0,*7E
1499724232.1,11759,17.31,74164.8,9.57,8.79,8.87,0,*7C
1499724233.28,11760,17.31,74166.3,9.55,8.87,8.87,0,*75
1499724234.46,11761,17.31,74170.5,9.55,8.87,8.79,0,*75
1499724235.64,11762,17.31,74172.8,9.55,8.87,8.87,0,*77
1499724236.87,11763,17.31,74176.3,9.57,8.87,8.89,0,*7A
1499724238.07,11764,17.31,74176.5,9.55,8.87,8.89,0,*7F
1499724239.31,11765,17.31,74172.0,9.57,8.87,8.89,0,*7C
1499724240.53,11766,17.31,74172.8,9.55,8.89,8.93,0,*78
1499724241.78,11767,17.31,74178.3,9.57,8.89,8.89,0,*70
1499724243.04,11768,17.31,74172.3,9.57,8.89,8.93,0,*74
1499724244.26,11769,17.31,74180.0,9.55,8.93,8.89,0,*77
1499724245.51,11770,17.31,74188.3,9.57,8.89,8.89,0,*76
1499724246.77,11771,17.31,74204.8,9.57,9.01,8.93,0,*7D
1499724248.0,11772,17.31,74182.3,9.59,8.97,8.93,0,*7E
1499724249.23,11773,17.31,74172.8,9.59,8.97,8.93,0,*7F
1499724250.46,11774,17.31,74166.8,9.57,8.89,8.87,0,*7C
1499724251.71,11775,17.31,74160.0,9.57,8.93,8.93,0,*73
1499724252.96,11776,17.31,74150.3,9.57,9.11,9.11,0,*70
1499724254.22,11777,17.31,74144.0,9.57,9.01,9.01,0,*71
1499724255.47,11778,17.31,74142.5,9.57,8.89,8.89,0,*7E
1499724256.7,11779,17.31,74128.3,9.57,8.87,8.89,0,*71
1499724257.89,11780,17.31,74124.8,9.57,8.69,8.69,0,*79
1499724259.12,11781,17.31,74134.3,9.57,8.59,8.65,0,*77
1499724260.37,11782,17.31,74126.8,9.57,8.59,8.59,0,*7B
1499724261.62,11783,17.31,74112.3,9.57,8.47,8.47,0,*7A
1499724262.88,11784,17.31,74136.5,9.57,8.55,8.55,0,*7D
1499724264.08,11785,17.31,74156.5,9.57,8.65,8.65,0,*7C
1499724265.28,11786,17.31,74150.3,9.57,8.87,8.87,0,*7F
1499724266.54,11787,17.31,74146.8,9.57,8.89,8.93,0,*75
1499724267.79,11788,17.31,74160.3,9.57,8.89,8.93,0,*7A
1499724269.04,11789,17.31,74164.5,9.57,8.89,8.89,0,*70
1499724270.3,11790,17.31,74152.5,9.57,8.89,8.89,0,*78
1499724271.55,11791,17.31,74104.0,9.57,8.89,8.89,0,*79
1499724272.8,11792,17.31,74130.0,9.57,8.93,8.93,0,*7A
1499724274.05,11793,17.31,74116.3,9.57,8.89,8.89,0,*7B
1499724275.26,11794,17.31,74122.3,9.57,8.79,8.87,0,*7D
1499724276.46,11795,17.31,74126.8,9.57,8.79,8.79,0,*7D
1499724277.67,11796,17.31,74116.5,9.57,8.87,8.87,0,*7E
1499724278.88,11797,17.31,74130.5,9.57,8.79,8.87,0,*7E
1499724280.09,11798,17.31,74124.0,9.57,8.87,8.87,0,*70
1499724281.29,11799,17.31,74130.8,9.57,8.69,8.69,0,*71
1499724282.53,11800,17.31,74132.8,9.57,8.75,8.75,0,*7E
1499724283.78,11801,17.31,74118.0,9.57,8.59,8.47,0,*70
1499724284.95,11802,17.31,74122.8,9.55,8.65,8.65,0,*7E
1499724286.17,11803,17.31,74118.0,9.57,8.59,8.65,0,*72
1499724287.4,11804,17.31,74118.8,9.57,8.59,8.65,0,*75
1499724288.62,11805,17.31,74130.8,9.57,8.69,8.59,0,*78
1499724289.85,11806,17.31,74128.3,9.55,8.47,8.55,0,*79
1499724291.07,11807,17.31,74136.3,9.57,8.59,8.65,0,*76
1499724292.24,11808,17.31,74150.8,9.55,8.69,8.65,0,*78
1499724293.46,11809,17.31,74134.5,9.55,8.75,8.75,0,*75
1499724294.68,11810,17.31,74136.8,9.55,8.75,8.75,0,*7D
1499724295.9,11811,17.31,74124.0,9.57,8.75,8.69,0,*73
1499724297.07,11812,17.31,74126.3,9.55,8.65,8.65,0,*7F
1499724298.23,11813,17.31,74134.5,9.55,8.65,8.65,0,*7E
1499724299.45,11814,17.31,74134.5,9.55,8.75,8.75,0,*79
1499724300.67,11815,17.31,74142.0,9.55,8.75,8.75,0,*78
1499724301.87,11816,17.31,74148.5,9.55,8.75,8.79,0,*77
1499724303.04,11817,17.31,74154.8,9.55,8.79,8.79,0,*7A
1499724304.27,11818,17.31,74146.5,9.55,8.55,8.47,0,*76
1499724305.49,11819,17.31,74152.3,9.55,8.75,8.75,0,*74
1499724306.67,11820,17.31,74152.0,9.55,8.87,8.87,0,*7E
1499724307.9,11821,17.31,74150.3,9.55,8.47,8.55,0,*7C
1499724309.13,11822,17.31,74144.3,9.55,8.55,8.59,0,*70
1499724310.31,11823,17.31,74162.5,9.55,8.27,8.27,0,*7D
1499724311.53,11824,17.31,74164.0,9.55,8.33,8.33,0,*7A
1499724312.73,11825,17.31,74166.5,9.53,8.65,8.61,0,*79
1499724313.98,11826,17.31,74166.5,9.53,8.75,8.75,0,*7E
1499724315.16,11827,17.31,74174.5,9.55,8.87,8.87,0,*79
1499724316.38,11828,17.31,74170.0,9.49,8.71,8.69,0,*72
1499724317.58,11829,17.31,74170.5,9.53,8.65,8.61,0,*75
1499724318.83,11830,17.31,74178.0,9.53,8.75,8.75,0,*79
1499724320.08,11831,17.31,74170.0,9.53,8.33,8.33,0,*78
1499724321.32,11832,17.31,74164.3,9.49,7.95,7.83,0,*77
1499724322.57,11833,17.31,74152.8,9.49,7.83,7.83,0,*71
1499724323.82,11834,17.31,74156.5,9.49,7.91,7.83,0,*75
1499724325.08,11835,17.31,74152.0,9.49,7.95,7.95,0,*77
1499724326.3,11836,17.31,74144.5,9.49,7.95,8.01,0,*76
1499724327.56,11837,17.31,74146.3,9.45,8.13,8.13,0,*79
1499724328.8,11838,17.31,74140.0,9.45,8.15,8.13,0,*70
1499724330.03,11839,17.31,74146.5,9.45,8.15,8.13,0,*71
1499724331.24,11840,17.31,74144.0,9.45,8.23,8.15,0,*7C
1499724332.45,11841,17.31,74154.3,9.45,8.27,8.23,0,*7C
1499724333.68,11842,17.31,74154.8,9.45,8.47,8.45,0,*79
1499724334.95,11843,17.31,74136.5,9.45,8.55,8.55,0,*7A
1499724336.18,11844,17.31,74152.3,9.45,8.55,8.69,0,*72
1499724337.35,11845,17.31,74150.0,9.47,8.61,8.69,0,*76
1499724338.54,11846,17.31,74140.0,9.45,8.65,8.65,0,*7F
1499724339.8,11847,17.31,74140.0,9.45,8.59,8.59,0,*7E
1499724341.0,11848,17.31,74132.8,9.45,8.69,8.69,0,*71
1499724342.23,11849,17.31,74138.8,9.45,8.75,8.69,0,*7D
1499724343.48,11850,17.31,74136.8,9.45,8.75,8.75,0,*78
1499724344.7,11851,17.31,74128.0,9.45,8.75,8.79,0,*75
1499724345.88,11852,17.31,74132.5,9.47,8.79,8.83,0,*7D
1499724347.09,11853,17.31,74140.5,9.45,8.83,8.83,0,*7B
1499724348.3,11854,17.31,74136.3,9.45,8.83,8.83,0,*7C
1499724349.5,11855,17.31,74132.3,9.45,8.79,8.79,0,*7D
1499724350.68,11856,17.31,74122.3,9.47,8.83,8.83,0,*7C
1499724351.88,11857,17.31,74130.0,9.45,8.83,8.79,0,*7A
1499724353.11,11858,17.31,74132.8,9.45,8.75,8.79,0,*7C
1499724354.34,11859,17.31,74160.5,9.45,8.75,8.79,0,*7D
1499724355.52,11860,17.31,74138.5,9.47,8.87,8.83,0,*7D
1499724356.7,11861,17.31,74134.5,9.47,9.03,9.03,0,*78
1499724357.92,11862,17.31,74130.3,9.47,8.93,8.93,0,*7B
1499724359.1,11863,17.31,74102.5,9.47,8.87,8.83,0,*7E
1499724360.28,11864,17.31,74128.5,9.47,9.07,9.07,0,*7D
1499724361.46,11865,17.31,74096.3,9.47,9.25,9.25,0,*7C
1499724362.66,11866,17.31,74120.0,9.47,9.15,9.25,0,*7C
1499724363.86,11867,17.31,74124.0,9.49,9.07,9.07,0,*70
1499724365.12,11868,17.31,74062.0,9.53,9.49,9.49,0,*74
1499724366.35,11869,17.31,74054.3,9.53,9.43,9.39,0,*78
1499724367.57,11870,17.31,74088.8,9.53,9.11,9.07,0,*7A
1499724368.77,11871,17.31,74094.3,9.53,9.21,9.21,0,*7C
1499724370.03,11872,17.31,74080.5,9.53,9.19,9.19,0,*7F
1499724371.28,11873,17.31,74100.3,9.53,8.89,8.97,0,*71
1499724372.53,11874,17.31,74124.8,9.53,8.97,9.01,0,*77
1499724373.76,11875,17.31,74120.8,9.55,9.01,9.01,0,*7E
1499724374.94,11876,17.31,74130.3,9.55,9.03,9.03,0,*7D
1499724376.17,11877,17.31,74154.0,9.55,9.01,9.01,0,*7C
1499724377.35,11878,17.31,74154.3,9.55,9.03,9.03,0,*73
1499724378.58,11879,17.31,74150.5,9.57,9.03,9.11,0,*73
1499724379.79,11880,17.31,74158.8,9.55,9.11,9.15,0,*70
1499724381.0,11881,17.31,74146.3,9.57,9.25,9.25,0,*77
1499724382.22,11882,17.31,74146.3,9.55,9.11,9.15,0,*72
1499724383.43,11883,17.31,74156.5,9.55,9.15,9.11,0,*73
1499724384.68,11884,17.31,74146.3,9.57,9.11,9.11,0,*72
1499724385.93,11885,17.31,74136.5,9.57,9.15,9.15,0,*73
1499724387.17,11886,17.31,74154.5,9.57,9.11,9.15,0,*74
1499724388.42,11887,17.31,74156.0,9.57,9.11,9.11,0,*71
1499724389.66,11888,17.31,74164.3,9.57,9.15,9.15,0,*7E
1499724390.91,11889,17.31,74166.0,9.57,9.15,9.15,0,*7F
1499724392.16,11890,17.31,74170.8,9.57,9.15,9.15,0,*77
1499724393.39,11891,17.31,74174.3,9.59,9.19,9.19,0,*78
1499724394.62,11892,17.31,74158.5,9.59,9.19,9.15,0,*77
1499724395.82,11893,17.31,74160.8,9.59,9.15,9.07,0,*79
1499724397.04,11894,17.31,74144.3,9.59,9.15,9.15,0,*7D
1499724398.26,11895,17.31,74152.3,9.59,9.19,9.15,0,*70
1499724399.45,11896,17.31,74156.8,9.59,9.07,9.07,0,*7F
1499724400.67,11897,17.31,74136.3,9.59,9.15,9.15,0,*7E
1499724401.87,11898,17.31,74130.3,9.61,9.21,9.29,0,*72
1499724403.09,11899,17.31,74142.8,9.59,9.15,9.15,0,*70
1499724404.32,11900,17.31,74136.5,9.59,8.93,8.93,0,*71
1499724405.57,11901,17.31,74148.3,9.61,8.97,8.93,0,*7F
1499724406.79,11902,17.31,74150.5,9.59,8.71,8.71,0,*73
1499724408.02,11903,17.31,74144.3,9.61,8.61,8.55,0,*7E
1499724409.25,11904,17.31,74160.8,9.59,8.59,8.59,0,*75
1499724410.45,11905,17.31,74170.0,9.59,8.71,8.79,0,*7C
1499724411.66,11906,17.31,74162.8,9.59,9.47,9.49,0,*79
1499724412.89,11907,17.31,74142.5,9.59,9.49,9.57,0,*79
1499724414.12,11908,17.31,74136.0,9.61,9.33,9.39,0,*78
1499724415.32,11909,17.31,74126.5,9.59,9.11,9.03,0,*7B
1499724416.55,11910,17.31,74132.5,9.59,8.89,8.93,0,*7B
1499724417.78,11911,17.31,74134.8,9.59,8.93,8.93,0,*71
1499724419.01,11912,17.31,74150.5,9.61,8.83,8.75,0,*70
1499724420.23,11913,17.31,74122.8,9.59,8.71,8.71,0,*73
1499724421.49,11914,17.31,74136.0,9.61,8.93,8.93,0,*7F
1499724422.69,11915,17.31,74128.3,9.59,8.79,8.71,0,*7D
1499724423.87,11916,17.31,74136.8,9.59,8.69,8.69,0,*76
1499724425.11,11917,17.31,74142.0,9.57,8.33,8.33,0,*79
1499724426.35,11918,17.31,74144.8,9.57,8.27,8.33,0,*73
1499724427.56,11919,17.31,74146.8,9.57,8.27,8.27,0,*77
1499724428.81,11920,17.31,74140.8,9.57,8.37,8.37,0,*7D
1499724430.06,11921,17.31,74162.0,9.57,8.33,8.33,0,*7C
1499724431.26,11922,17.31,74162.0,9.55,8.47,8.45,0,*7F
1499724432.43,11923,17.31,74164.3,9.55,8.65,8.69,0,*70
1499724433.6,11924,17.31,74172.8,9.55,8.69,8.69,0,*7B
1499724434.77,11925,17.31,74166.0,9.55,8.69,8.65,0,*76
1499724435.99,11926,17.31,74170.5,9.55,8.75,8.75,0,*79
1499724437.18,11927,17.31,74162.3,9.55,8.59,8.65,0,*77
1499724438.41,11928,17.31,74170.0,9.55,8.59,8.55,0,*7B
1499724439.61,11929,17.31,74174.3,9.53,8.61,8.61,0,*70
1499724440.8,11930,17.31,74178.5,9.53,8.65,8.65,0,*78
1499724442.05,11931,17.31,74184.8,9.53,8.71,8.71,0,*79
1499724443.29,11932,17.31,74186.5,9.53,8.75,8.71,0,*7E
1499724444.54,11933,17.31,74168.8,9.49,8.71,8.71,0,*70
1499724445.75,11934,17.31,74166.5,9.53,8.83,8.83,0,*7C
1499724446.95,11935,17.31,74162.0,9.53,8.83,8.83,0,*7D
1499724448.17,11936,17.31,74152.0,9.53,8.83,8.75,0,*77
1499724449.4,11937,17.31,74154.5,9.53,8.75,8.83,0,*76
1499724450.58,11938,17.31,74186.8,9.55,8.79,8.87,0,*77
1499724451.76,11939,17.31,74174.8,9.55,8.87,8.87,0,*77
1499724452.99,11940,17.31,74142.3,9.53,9.19,9.21,0,*74
1499724454.19,11941,17.31,74082.8,9.55,9.43,9.35,0,*79
1499724455.36,11942,17.31,74114.8,9.55,9.21,9.25,0,*7F
1499724456.58,11943,17.31,74108.0,9.55,8.89,8.89,0,*7A
1499724457.78,11944,17.31,74128.8,9.57,8.69,8.65,0,*73
1499724459.01,11945,17.31,74140.0,9.55,8.55,8.59,0,*70
1499724460.24,11946,17.31,74142.0,9.55,8.55,8.55,0,*7F
1499724461.44,11947,17.31,74150.5,9.55,8.59,8.65,0,*71
1499724462.63,11948,17.31,74148.8,9.55,8.69,8.59,0,*72
1499724463.83,11949,17.31,74114.5,9.55,8.75,8.69,0,*7D
1499724465.06,11950,17.31,74132.5,9.55,8.55,8.59,0,*74
1499724466.31,11951,17.31,74146.8,9.49,8.37,8.41,0,*75
1499724467.54,11952,17.31,74160.3,9.55,8.55,8.59,0,*76
1499724468.74,11953,17.31,74146.0,9.49,8.69,8.69,0,*76
1499724469.94,11954,17.31,74144.3,9.53,8.83,8.83,0,*7A
1499724471.16,11955,17.31,74140.5,9.53,8.83,8.75,0,*72
1499724472.42,11956,17.31,74156.5,9.53,8.97,9.01,0,*76
1499724473.64,11957,17.31,74146.3,9.55,8.93,9.01,0,*75
1499724474.82,11958,17.31,74158.3,9.55,9.03,9.03,0,*70
1499724476.02,11959,17.31,74166.3,9.55,9.03,9.15,0,*76
1499724477.2,11960,17.31,74142.5,9.55,9.25,9.21,0,*7F
1499724478.37,11961,17.31,74142.8,9.55,9.21,9.25,0,*7E
1499724479.6,11962,17.31,74164.0,9.55,8.93,8.93,0,*79
1499724480.79,11963,17.31,74158.5,9.55,8.75,8.69,0,*75
1499724481.99,11964,17.31,74172.0,9.55,8.59,8.65,0,*70
1499724483.17,11965,17.31,74162.3,9.55,8.87,8.87,0,*7E
1499724484.39,11966,17.31,74150.0,9.55,8.89,8.89,0,*7D
1499724485.59,11967,17.31,74152.0,9.57,9.21,9.25,0,*7A
1499724486.77,11968,17.31,74160.5,9.55,9.21,9.21,0,*73
1499724488.0,11969,17.31,74168.5,9.55,9.01,9.01,0,*72
1499724489.22,11970,17.31,74170.3,9.55,8.93,8.89,0,*71
1499724490.48,11971,17.31,74172.3,9.57,8.93,9.01,0,*73
1499724491.73,11972,17.31,74164.8,9.57,8.89,8.89,0,*7A
1499724492.95,11973,17.31,74166.8,9.55,8.93,8.93,0,*79
1499724494.18,11974,17.31,74158.0,9.57,8.93,9.03,0,*74
1499724495.38,11975,17.31,74158.3,9.55,8.93,9.03,0,*77
1499724496.61,11976,17.31,74156.8,9.57,8.87,8.89,0,*70
1499724497.78,11977,17.31,74156.0,9.55,8.69,8.69,0,*7D
1499724498.98,11978,17.31,74150.8,9.57,8.65,8.69,0,*7C
1499724500.18,11979,17.31,74154.3,9.57,8.69,8.69,0,*71
1499724501.37,11980,17.31,74150.8,9.57,8.69,8.69,0,*77
1499724502.6,11981,17.31,74148.3,9.57,8.79,8.75,0,*7A
1499724503.82,11982,17.31,74142.3,9.55,9.11,9.11,0,*77
1499724505.05,11983,17.31,74144.5,9.55,9.01,8.93,0,*7C
1499724506.27,11984,17.31,74146.0,9.55,8.75,8.75,0,*71
1499724507.45,11985,17.31,74146.8,9.55,8.87,8.87,0,*70
1499724508.63,11986,17.31,74148.0,9.55,8.87,8.87,0,*73
1499724509.84,11987,17.31,74144.5,9.55,8.87,8.89,0,*7C
1499724511.04,11988,17.31,74148.3,9.57,8.79,8.79,0,*7F
1499724512.26,11989,17.31,74156.0,9.57,8.75,8.69,0,*73
1499724513.44,11990,17.31,74168.5,9.55,8.79,8.79,0,*74
1499724514.62,11991,17.31,74174.5,9.55,8.79,8.87,0,*74
1499724515.85,11992,17.31,74162.5,9.55,8.93,9.01,0,*7C
1499724517.05,11993,17.31,74140.5,9.57,9.25,9.21,0,*71
1499724518.24,11994,17.31,74148.3,9.55,9.21,9.15,0,*77
1499724519.49,11995,17.31,74162.3,9.57,9.11,9.11,0,*73
1499724520.74,11996,17.31,74166.5,9.57,8.89,8.89,0,*70
1499724521.99,11997,17.31,74166.0,9.57,8.89,8.89,0,*71
1499724523.24,11998,17.31,74160.0,9.57,8.89,8.89,0,*7E
1499724524.5,11999,17.31,74154.0,9.57,8.89,8.89,0,*7F
1499724525.75,12000,17.31,74132.3,9.57,8.93,8.93,0,*75
1499724527.0,12001,17.31,74116.0,9.57,9.11,9.11,0,*74
1499724528.25,12002,17.31,74116.8,9.57,8.93,8.89,0,*7C
1499724529.45,12003,17.31,74136.5,9.57,9.03,9.03,0,*76
1499724530.71,12004,17.31,74154.0,9.57,8.89,8.89,0,*71
1499724531.91,12005,17.31,74150.3,9.57,8.87,8.79,0,*71